This is the latest recevied weather packets stored in our database for station/object KGRR-WX. If no packets are shown the sender has not sent any weather packets the latest 10 day(s).
| Time | Temp. | Humidity | Pressure | Rain* | Wind** | Luminosity | Snow |
|---|---|---|---|---|---|---|---|
| 1788289206 | 31.67° C | 61% | 985.6 hPa | 0 mm | - | - | - |
| 1788288305 | 31.11° C | 56% | 986.5 hPa | 0 mm | - | - | - |
| 1788287406 | 31.11° C | 56% | 986.6 hPa | 0 mm | - | - | - |
| 1788286505 | 31.11° C | 56% | 986.6 hPa | 0 mm | - | - | - |
| 1788285606 | 31.11° C | 56% | 986.6 hPa | 0 mm | - | - | - |
| 1788284705 | 31.11° C | 66% | 986.6 hPa | 0 mm | - | - | - |
| 1788283805 | 30.56° C | 66% | 986.6 hPa | 0 mm | - | - | - |
| 1788282905 | 30.56° C | 66% | 986.6 hPa | 0 mm | - | - | - |
| 1788282005 | 30° C | 66% | 986.6 hPa | 0 mm | - | - | - |
| 1788281105 | 30° C | 75% | 986.8 hPa | 0 mm | - | - | - |
| 1788280205 | 30° C | 77% | 986.2 hPa | 0 mm | - | - | - |
| 1788279304 | 29.44° C | 77% | 986.2 hPa | 0 mm | - | - | - |
| 1788278405 | 28.89° C | 77% | 986.2 hPa | 0 mm | - | - | - |
| 1788277505 | 28.89° C | 85% | 986 hPa | 0 mm | - | - | - |
| 1788276605 | 28.33° C | 85% | 986 hPa | 0 mm | - | - | - |
| 1788275705 | 27.22° C | 85% | 985.9 hPa | 0 mm | - | - | - |
| 1788274805 | 26.67° C | 85% | 985.9 hPa | 0 mm | - | - | - |
| 1788273905 | 26.67° C | 85% | 985.2 hPa | 0 mm | - | - | - |
| 1788273005 | 26.11° C | 81% | 986.4 hPa | 0 mm | - | - | - |
| 1788272106 | 25.56° C | 80% | 986.9 hPa | 0 mm | - | - | - |
| 1788271205 | 25° C | 80% | 986.9 hPa | 0 mm | - | - | - |
| 1788270306 | 24.44° C | 87% | 986 hPa | 0 mm | - | - | - |
| 1788269405 | 24.44° C | 87% | 986 hPa | 0 mm | - | - | - |
| 1788268505 | 23.89° C | 87% | 986 hPa | 0 mm | - | - | - |
| 1788267608 | 22.78° C | 87% | 986 hPa | 0 mm | - | - | - |
* Rain latest hour (hover to see other rain measurements)
** Current wind speed in m/s (hover to see current wind gust speed)